Location: Caracas
(10.5033°N, 66.8422°W)
Time: 23:28:09
(UTC-04:00)

Tiangong 1 - Pass Details

Date: 18 November 2017
Orbit: 284 x 308 km, 42.8° (Epoch: 22 November)

Event Time Altitude Azimuth Distance (km) Brightness Sun altitude
Rises 19:30:40 0° 246° (WSW) 1,978 6.2 -21.7°
Reaches altitude 10° 19:32:52 10° 263° (W) 1,150 4.6 -22.2°
Enters shadow 19:34:07 18° 289° (WNW) 801 3.3 -22.5°
